OSCAR 7 (AO-7)

Last updated on Mon Sep 21 2026 00:03:14 GMT+0000 (Coordinated Universal Time)

1 07530U 74089B 26263.26207443 -.00000044 00000+0 15605-4 0 9999 2 07530 101.9920 277.5023 0011995 311.0066 111.4428 12.53699609372437
UTC large
Height (km)
Speed (km/s)
/
Latitude / Longitude
Inclination (degrees)
Orbital Period (minutes)
Azimuth
Elevation
Range (km)
Doppler Factor

Next 0 passes for location: London (51.5072 / 0.1276)

No passes found over London.
OSCAR 7 (AO-7)